Weather History for Milwaukee Timmerman, WI

Change the Weather History Date:

Thursday, October 4, 2012

  Actual Average Record
Temperature  
Mean Temperature 60 °F -  
Max Temperature 75 °F 66 °F 86 °F (2005)
Min Temperature 46 °F 47 °F 31 °F (1989)
Degree Days  
Heating Degree Days 4    
Growing Degree Days 10 (Base 50)    
Moisture  
Dew Point 47 °F    
Average Humidity 71    
Maximum Humidity 94    
Minimum Humidity 38    
Precipitation  
Precipitation 0.00 in - - ()
Sea Level Pressure  
Sea Level Pressure 30.01 in    
Wind  
Wind Speed 7 mph (SW)    
Max Wind Speed 17 mph    
Max Gust Speed 23 mph    
Visibility 9 miles    
Events      
Averages and records for this station are not official NWS values.
T = Trace of Precipitation, MM = Missing Value Source: NWS Daily Summary

Daily Weather History Graph

Daily Weather History Graph

Search for Another Location

Airport:

Trip Planner

Search our weather history database for the weather conditions in past years. The results will help you decide how hot, cold, wet, or windy it might be!

Date:

Astronomy

Oct. 04, 2012 Rise Set
Actual Time 6:53 AM CDT 6:27 PM CDT
Civil Twilight 6:25 AM CDT 6:55 PM CDT
Nautical Twilight 5:52 AM CDT 7:28 PM CDT
Astronomical Twilight 5:18 AM CDT 8:01 PM CDT
Moon 8:55 PM CDT (10/4) 11:17 AM CDT (10/4)
Length of Visible Light 12h 30m
Length of Day
11h 33m
Waning Gibbous, 82% of the Moon is Illuminated
Oct 4
Waning Gibbous
Oct 8
Last Quarter
Oct 15
New
Oct 21
First Quarter
Oct 29
Full

Hourly Weather History & Observations

Time (CDT) Temp. Windchill Dew Point Humidity Pressure Visibility Wind Dir Wind Speed Gust Speed Precip Events Conditions
12:15 AM 59.0 °F - 53.6 °F 82% 30.01 in 10.0 mi SW 4.6 mph - N/A   Overcast
12:35 AM 59.0 °F - 53.6 °F 82% 30.01 in 10.0 mi SSW 4.6 mph - N/A   Overcast
12:55 AM 59.0 °F - 53.6 °F 82% 30.01 in 10.0 mi SSW 5.8 mph - N/A   Overcast
1:15 AM 59.0 °F - 53.6 °F 82% 30.02 in 10.0 mi SW 5.8 mph - N/A   Overcast
1:35 AM 59.0 °F - 53.6 °F 82% 30.02 in 10.0 mi SW 5.8 mph - N/A   Overcast
1:55 AM 59.0 °F - 53.6 °F 82% 30.01 in 10.0 mi SW 5.8 mph - N/A   Overcast
2:15 AM 59.0 °F - 53.6 °F 82% 30.01 in 10.0 mi SW 5.8 mph - N/A   Overcast
2:35 AM 55.4 °F - 51.8 °F 88% 30.01 in 7.0 mi SW 4.6 mph - N/A   Scattered Clouds
2:55 AM 55.4 °F - 51.8 °F 88% 30.00 in 7.0 mi SW 4.6 mph - N/A   Clear
3:15 AM 55.4 °F - 51.8 °F 88% 30.00 in 7.0 mi WSW 5.8 mph - N/A   Clear
3:35 AM 55.4 °F - 51.8 °F 88% 30.00 in 7.0 mi WSW 4.6 mph - N/A   Clear
3:55 AM 53.6 °F - 51.8 °F 94% 30.00 in 7.0 mi SW 3.5 mph - N/A   Clear
4:15 AM 53.6 °F - 51.8 °F 94% 30.00 in 5.0 mi SW 3.5 mph - N/A   Clear
4:35 AM 53.6 °F - 51.8 °F 94% 30.00 in 5.0 mi SSW 3.5 mph - N/A   Clear
4:55 AM 53.6 °F - 51.8 °F 94% 30.00 in 5.0 mi SSW 4.6 mph - N/A   Clear
5:15 AM 53.6 °F - 50.0 °F 88% 30.00 in 7.0 mi SW 4.6 mph - N/A   Clear
5:35 AM 53.6 °F - 50.0 °F 88% 30.00 in 7.0 mi SSW 3.5 mph - N/A   Clear
5:55 AM 53.6 °F - 50.0 °F 88% 30.00 in 7.0 mi SSW 3.5 mph - N/A   Scattered Clouds
6:15 AM 51.8 °F - 50.0 °F 94% 30.00 in 10.0 mi SSW 3.5 mph - N/A   Clear
6:35 AM 53.6 °F - 48.2 °F 82% 30.00 in 10.0 mi SW 4.6 mph - N/A   Mostly Cloudy
6:45 AM 55.4 °F - 50.0 °F 82% 30.00 in 10.0 mi SW 5.8 mph - N/A   Mostly Cloudy
6:55 AM 55.4 °F - 50.0 °F 82% 30.00 in 10.0 mi SW 5.8 mph - N/A   Overcast
7:45 AM 55.4 °F - 50.0 °F 82% 30.00 in 10.0 mi SW 4.6 mph - N/A   Clear
8:50 AM 60.8 °F - 51.8 °F 72% 30.00 in 10.0 mi SW 10.4 mph - N/A   Clear
9:45 AM 66.2 °F - 51.8 °F 60% 29.98 in 10.0 mi SSW 9.2 mph - N/A   Clear
10:45 AM 71.6 °F - 50.0 °F 46% 29.97 in 10.0 mi SSW 13.8 mph 20.7 mph N/A   Clear
11:45 AM 75.2 °F - 48.2 °F 38% 29.94 in 10.0 mi South 12.7 mph 18.4 mph N/A   Clear
12:45 PM 73.4 °F - 48.2 °F 41% 29.91 in 10.0 mi SSW 11.5 mph 17.3 mph N/A   Mostly Cloudy
1:45 PM 75.2 °F - 50.0 °F 41% 29.94 in 10.0 mi SW 17.3 mph 23.0 mph N/A   Scattered Clouds
2:45 PM 62.6 °F - 53.6 °F 72% 29.96 in 10.0 mi West 13.8 mph 19.6 mph N/A   Mostly Cloudy
3:45 PM 64.4 °F - 48.2 °F 56% 29.96 in 10.0 mi WSW 16.1 mph 21.9 mph N/A   Clear
5:45 PM 57.2 °F - 42.8 °F 59% 30.00 in 10.0 mi WSW 16.1 mph 19.6 mph N/A   Scattered Clouds
7:45 PM 57.2 °F - 41.0 °F 55% 30.01 in 10.0 mi WSW 13.8 mph 19.6 mph N/A   Overcast
9:15 PM 53.6 °F - 33.8 °F 47% 30.04 in 10.0 mi West 10.4 mph - N/A   Clear
9:35 PM 53.6 °F - 32.0 °F 44% 30.04 in 10.0 mi West 10.4 mph - N/A   Clear
9:55 PM 51.8 °F - 32.0 °F 47% 30.05 in 10.0 mi West 12.7 mph 19.6 mph N/A   Clear
10:15 PM 51.8 °F - 32.0 °F 47% 30.06 in 10.0 mi West 13.8 mph 19.6 mph N/A   Clear
10:35 PM 50.0 °F - 32.0 °F 50% 30.07 in 10.0 mi West 15.0 mph 20.7 mph N/A   Clear
10:55 PM 50.0 °F - 32.0 °F 50% 30.07 in 10.0 mi West 12.7 mph 19.6 mph N/A   Clear
11:15 PM 50.0 °F - 32.0 °F 50% 30.08 in 10.0 mi West 10.4 mph - N/A   Clear
11:35 PM 46.4 °F 39.8 °F 32.0 °F 57% 30.08 in 10.0 mi West 16.1 mph 19.6 mph N/A   Clear
11:55 PM 46.4 °F 41.9 °F 32.0 °F 57% 30.08 in 10.0 mi West 9.2 mph - N/A   Clear